When you browse on this site, cookies collect data to enhance your experience and personalize the content and advertising you see.
Visit our Privacy Policy to learn more. By continuing to use the site, you agree to this use of cookies and data.
  • In Latvia
  • List of Countries
  • For 7 days
  • Water Temperature
  • Weather Map
  • Weather Widgets
  • user-avatar
    Login

    Hourly Weather Soino

    Today, 7 June, Sunday

    Time Temperature Precipitation Wind Pressure Humidity
    00:00 +13°C° 0 mm 1 mps 744 mmHg 92%
    01:00 +13°C° 0 mm 1 mps 744 mmHg 92%
    02:00 +13°C° 0 mm 1 mps 744 mmHg 93%
    03:00 +13°C° 0 mm 1 mps 744 mmHg 92%
    04:00 +14°C° 0 mm 1 mps 745 mmHg 91%
    05:00 +14°C° 0 mm 2 mps 745 mmHg 90%
    06:00 +16°C° 0 mm 2 mps 745 mmHg 82%
    07:00 +19°C° 0 mm 2 mps 746 mmHg 74%
    08:00 +21°C° 0 mm 2 mps 746 mmHg 67%
    09:00 +23°C° 0 mm 2 mps 746 mmHg 61%
    10:00 +24°C° 0 mm 2 mps 746 mmHg 56%
    11:00 +26°C° 0 mm 2 mps 746 mmHg 50%
    12:00 +26°C° 0 mm 3 mps 746 mmHg 48%
    13:00 +27°C° 0 mm 3 mps 746 mmHg 46%
    14:00 +28°C° 0 mm 3 mps 746 mmHg 45%
    15:00 +27°C° 0 mm 3 mps 746 mmHg 48%
    16:00 +26°C° 0 mm 3 mps 746 mmHg 52%
    17:00 +26°C° 0 mm 3 mps 745 mmHg 56%
    18:00 +24°C° 0.2 mm 3 mps 745 mmHg 64%
    19:00 +22°C° 0.2 mm 3 mps 745 mmHg 72%
    20:00 +20°C° 0.2 mm 3 mps 745 mmHg 80%
    21:00 +20°C° 0.1 mm 3 mps 745 mmHg 83%
    22:00 +19°C° 0.1 mm 3 mps 745 mmHg 86%
    23:00 +19°C° 0.1 mm 3 mps 745 mmHg 89%

    Tomorrow, 8 June, Monday

    Time Temperature Precipitation Wind Pressure Humidity
    00:00 +19°C° 0 mm 3 mps 745 mmHg 91%
    01:00 +18°C° 0 mm 3 mps 745 mmHg 92%
    02:00 +18°C° 0 mm 2 mps 745 mmHg 94%
    03:00 +18°C° 0.2 mm 3 mps 745 mmHg 93%
    04:00 +18°C° 0.2 mm 3 mps 744 mmHg 93%
    05:00 +18°C° 0.2 mm 3 mps 744 mmHg 93%
    06:00 +20°C° 0 mm 3 mps 744 mmHg 87%
    07:00 +21°C° 0 mm 3 mps 745 mmHg 81%
    08:00 +24°C° 0 mm 3 mps 745 mmHg 75%
    09:00 +25°C° 0 mm 3 mps 745 mmHg 67%
    10:00 +27°C° 0 mm 4 mps 745 mmHg 59%
    11:00 +28°C° 0 mm 4 mps 745 mmHg 50%
    12:00 +29°C° 0 mm 4 mps 745 mmHg 48%
    13:00 +29°C° 0 mm 4 mps 745 mmHg 46%
    14:00 +30°C° 0 mm 4 mps 745 mmHg 43%
    15:00 +30°C° 0 mm 4 mps 744 mmHg 46%
    16:00 +29°C° 0 mm 4 mps 744 mmHg 48%
    17:00 +29°C° 0 mm 4 mps 744 mmHg 50%
    18:00 +27°C° 0 mm 3 mps 744 mmHg 60%
    19:00 +25°C° 0 mm 3 mps 744 mmHg 69%
    20:00 +24°C° 0 mm 2 mps 744 mmHg 78%
    21:00 +23°C° 0 mm 2 mps 745 mmHg 83%
    22:00 +21°C° 0 mm 2 mps 745 mmHg 88%
    23:00 +19°C° 0 mm 2 mps 745 mmHg 93%

    Day after tomorrow, 9 June, Tuesday

    Time Temperature Precipitation Wind Pressure Humidity
    00:00 +19°C° 0 mm 2 mps 745 mmHg 94%
    01:00 +18°C° 0 mm 2 mps 745 mmHg 95%
    02:00 +18°C° 0 mm 2 mps 745 mmHg 97%
    03:00 +18°C° 0 mm 2 mps 746 mmHg 95%
    04:00 +18°C° 0 mm 2 mps 746 mmHg 93%
    05:00 +19°C° 0 mm 2 mps 746 mmHg 92%
    06:00 +21°C° 0 mm 2 mps 746 mmHg 84%
    07:00 +24°C° 0 mm 2 mps 746 mmHg 76%
    08:00 +26°C° 0 mm 2 mps 746 mmHg 69%
    09:00 +27°C° 0 mm 3 mps 746 mmHg 62%
    10:00 +28°C° 0 mm 3 mps 747 mmHg 55%
    11:00 +29°C° 0 mm 4 mps 747 mmHg 49%
    12:00 +30°C° 0 mm 3 mps 747 mmHg 47%
    13:00 +30°C° 0 mm 3 mps 746 mmHg 44%
    14:00 +31°C° 0 mm 3 mps 746 mmHg 42%
    15:00 +30°C° 0 mm 3 mps 746 mmHg 43%
    16:00 +30°C° 0 mm 3 mps 746 mmHg 45%
    17:00 +30°C° 0 mm 2 mps 746 mmHg 47%
    18:00 +28°C° 0 mm 2 mps 746 mmHg 56%
    19:00 +26°C° 0 mm 2 mps 746 mmHg 65%
    20:00 +24°C° 0 mm 1 mps 746 mmHg 75%
    21:00 +23°C° 0 mm 1 mps 746 mmHg 78%
    22:00 +22°C° 0 mm 1 mps 746 mmHg 81%
    23:00 +21°C° 0 mm 1 mps 747 mmHg 84%

    10 June, Wednesday

    Time Temperature Precipitation Wind Pressure Humidity
    00:00 +20°C° 0 mm 1 mps 747 mmHg 87%
    01:00 +20°C° 0 mm 1 mps 747 mmHg 91%
    02:00 +20°C° 0 mm 1 mps 747 mmHg 94%
    03:00 +20°C° 0 mm 1 mps 747 mmHg 93%
    04:00 +20°C° 0 mm 1 mps 747 mmHg 92%
    05:00 +20°C° 0 mm 2 mps 747 mmHg 91%
    06:00 +21°C° 0 mm 2 mps 747 mmHg 83%
    07:00 +24°C° 0 mm 2 mps 747 mmHg 75%
    08:00 +26°C° 0 mm 2 mps 747 mmHg 68%
    09:00 +28°C° 0 mm 2 mps 747 mmHg 61%
    10:00 +29°C° 0 mm 3 mps 747 mmHg 54%
    11:00 +30°C° 0 mm 3 mps 747 mmHg 48%
    12:00 +31°C° 0 mm 3 mps 746 mmHg 46%
    13:00 +31°C° 0 mm 3 mps 746 mmHg 44%
    14:00 +33°C° 0 mm 3 mps 746 mmHg 42%
    15:00 +31°C° 0 mm 3 mps 746 mmHg 44%
    16:00 +31°C° 0 mm 3 mps 746 mmHg 47%
    17:00 +31°C° 0 mm 3 mps 746 mmHg 49%
    18:00 +28°C° 0.2 mm 2 mps 746 mmHg 59%
    19:00 +26°C° 0.2 mm 2 mps 746 mmHg 69%
    20:00 +24°C° 0.2 mm 2 mps 746 mmHg 80%
    21:00 +23°C° 0.1 mm 2 mps 746 mmHg 83%
    22:00 +21°C° 0.1 mm 2 mps 746 mmHg 87%
    23:00 +20°C° 0.1 mm 2 mps 746 mmHg 90%

    11 June, Thursday

    Time Temperature Precipitation Wind Pressure Humidity
    00:00 +20°C° 0 mm 2 mps 746 mmHg 92%
    01:00 +20°C° 0 mm 2 mps 746 mmHg 93%
    02:00 +20°C° 0 mm 2 mps 746 mmHg 94%
    03:00 +20°C° 0 mm 2 mps 746 mmHg 93%
    04:00 +20°C° 0 mm 2 mps 746 mmHg 93%
    05:00 +20°C° 0 mm 2 mps 746 mmHg 92%
    06:00 +23°C° 0 mm 2 mps 746 mmHg 86%
    07:00 +25°C° 0 mm 2 mps 746 mmHg 79%
    08:00 +26°C° 0 mm 2 mps 746 mmHg 73%
    09:00 +28°C° 0 mm 3 mps 746 mmHg 65%
    10:00 +29°C° 0 mm 3 mps 746 mmHg 57%
    11:00 +31°C° 0 mm 3 mps 746 mmHg 49%
    12:00 +31°C° 0 mm 3 mps 746 mmHg 46%
    13:00 +33°C° 0 mm 3 mps 746 mmHg 44%
    14:00 +33°C° 0 mm 3 mps 745 mmHg 42%
    15:00 +33°C° 0 mm 3 mps 745 mmHg 43%
    16:00 +33°C° 0 mm 3 mps 745 mmHg 44%
    17:00 +31°C° 0 mm 2 mps 745 mmHg 46%
    18:00 +29°C° 0 mm 2 mps 745 mmHg 56%
    19:00 +28°C° 0 mm 2 mps 745 mmHg 65%
    20:00 +26°C° 0 mm 1 mps 745 mmHg 75%
    21:00 +24°C° 0.1 mm 1 mps 745 mmHg 80%
    22:00 +23°C° 0.1 mm 1 mps 745 mmHg 84%
    23:00 +22°C° 0.1 mm 1 mps 745 mmHg 88%

    12 June, Friday

    Time Temperature Precipitation Wind Pressure Humidity
    00:00 +21°C° 0.1 mm 1 mps 745 mmHg 90%
    01:00 +19°C° 0.1 mm 0 mps 745 mmHg 92%
    02:00 +18°C° 0.1 mm 0 mps 745 mmHg 94%
    03:00 +19°C° 0 mm 0 mps 745 mmHg 93%
    04:00 +21°C° 0 mm 1 mps 745 mmHg 93%
    05:00 +21°C° 0 mm 1 mps 745 mmHg 92%
    06:00 +23°C° 0 mm 1 mps 745 mmHg 86%
    07:00 +25°C° 0 mm 1 mps 745 mmHg 80%
    08:00 +26°C° 0 mm 1 mps 745 mmHg 74%
    09:00 +27°C° 0.8 mm 1 mps 745 mmHg 73%
    10:00 +27°C° 0.8 mm 2 mps 745 mmHg 73%
    11:00 +27°C° 0.8 mm 2 mps 746 mmHg 73%
    12:00 +28°C° 0.4 mm 3 mps 745 mmHg 71%
    13:00 +28°C° 0.4 mm 3 mps 745 mmHg 69%
    14:00 +28°C° 0.4 mm 3 mps 745 mmHg 67%
    15:00 +27°C° 0.4 mm 4 mps 745 mmHg 70%
    16:00 +26°C° 0.4 mm 4 mps 745 mmHg 73%
    17:00 +25°C° 0.4 mm 4 mps 745 mmHg 76%
    18:00 +23°C° 0.5 mm 4 mps 745 mmHg 80%
    19:00 +21°C° 0.5 mm 4 mps 745 mmHg 85%
    20:00 +19°C° 0.5 mm 4 mps 745 mmHg 89%
    21:00 +19°C° 0.7 mm 4 mps 745 mmHg 90%
    22:00 +18°C° 0.7 mm 4 mps 746 mmHg 90%
    23:00 +18°C° 0.7 mm 4 mps 746 mmHg 91%
    Show more